Regional Weather Roundup
Issued by NWS Cleveland, OH

Home | Current Version | Previous Version | Text Only | Print | Product List | Glossary Off
Versions: 1 2 3 4 5 6 7 8 9 10 11 12 13 14 15 16 17 18 19 20 21 22 23 24 25 26 27 28 29 30 31 32 33 34 35 36 37 38 39 40 41 42 43 44 45 46 47 48 49 50

000
ASUS41 KCLE 301810
RWRCLE
OHIO REGIONAL WEATHER ROUNDUP
NATIONAL WEATHER SERVICE WILMINGTON, OH
200 PM EDT THU OCT 30 2014

NOTE: "FAIR" INDICATES FEW OR NO CLOUDS BELOW 12,000 FEET WITH NO
SIGNIFICANT WEATHER AND/OR OBSTRUCTIONS TO VISIBILITY.

OHZ001>008-015>018-024>027-034-035-043-044-301900-
   NORTHWEST OHIO

CITY           SKY/WX    TMP DP  RH WIND       PRES   REMARKS
DEFIANCE       CLOUDY    48  37  65 VRB5      30.12F
FINDLAY        CLOUDY    50  33  52 NW9       30.11F
TOLEDO EXPRESS PTSUNNY   50  34  54 W5        30.11F
TOLEDO METCALF PTSUNNY   50  34  54 W5        30.12F
LIMA           CLOUDY    49  33  54 NW3       30.12F
$$

OHZ009>014-019>023-028>033-038-089-301900-
   NORTHEAST OHIO

CITY           SKY/WX    TMP DP  RH WIND       PRES   REMARKS
CLE-HOPKINS    PTSUNNY   48  37  65 NW13      30.12F
CLE-LAKEFRONT    N/A    N/A N/A N/A MISG        N/A
CUY CO. ARPT   NOT AVBL
LORAIN-ELYRIA  CLOUDY    48  37  65 NW10      30.11F
ASHTABULA      CLOUDY    48  36  63 NW10      30.09F
AKRON-CANTON   CLOUDY    49  38  65 NW6       30.09F
WOOSTER        CLOUDY    49  34  56 SW5       30.10F
MANSFIELD      CLOUDY    48  33  56 W5        30.10F
YOUNGSTOWN     CLOUDY    49  35  58 W5        30.08F
$$

OHZ042-051>053-060>062-070>072-077>081-301900-
  SOUTHWEST OHIO

CITY           SKY/WX    TMP DP  RH WIND       PRES   REMARKS
CINC-COVINGTON MOSUNNY   51  33  50 CALM      30.11F
CINC-LUNKEN    MOSUNNY   54  35  48 S5        30.13F
HAMILTON       MOSUNNY   53  34  48 N5        30.13F
DAYTON         CLOUDY    50  34  54 CALM      30.13F
WRIGHT-PAT AFB CLOUDY    49  33  54 N3        30.12F
DAYTON GENERAL PTSUNNY   50  33  52 VRB6      30.11F
WILMINGTON     PTSUNNY   52  32  46 N6        30.11F
$$

OHZ036-037-039>041-045>050-054>059-063>069-073>076-082>088-301900-
  CENTRAL AND SOUTHEAST OHIO

CITY           SKY/WX    TMP DP  RH WIND       PRES   REMARKS
COLUMBUS       CLOUDY    49  32  52 CALM      30.11F
OSU AIRPORT    CLOUDY    49  34  56 NW3       30.11F
BOLTON FIELD   CLOUDY    48  34  57 N5        30.12
RICKENBACK AFB CLOUDY    49  33  53 CALM      30.11F
NEWARK         CLOUDY    50  32  50 W3        30.10F
MARION         CLOUDY    48  33  56 W3        30.11F
LANCASTER      CLOUDY    49  32  52 CALM      30.11F
ZANESVILLE     CLOUDY    49  32  52 NW3       30.11F
NEW PHILLY     CLOUDY    48  37  65 W7        30.11F
$$



USA.gov is the U.S. government's official web portal to all federal, state and local government web resources and services.